• In Portugal
  • List of Countries
  • For 7 days
  • Water Temperature
  • Satellite Maps
  • Weather Map
  • Weather Widgets
  • user-avatar
    Login

    Hourly Weather Balchik

    Today, 26 September, Wednesday

    Time Temperature Precipitation Wind Pressure Humidity
    00:00 +8°C° 0 mm 5 mps 750 mmHg 53%
    01:00 +7°C° 0 mm 5 mps 750 mmHg 54%
    02:00 +7°C° 0 mm 6 mps 750 mmHg 56%
    03:00 +7°C° 0 mm 6 mps 750 mmHg 57%
    04:00 +5°C° 0 mm 6 mps 750 mmHg 59%
    05:00 +5°C° 0 mm 6 mps 750 mmHg 60%
    06:00 +6°C° 0 mm 7 mps 751 mmHg 58%
    07:00 +6°C° 0 mm 7 mps 751 mmHg 56%
    08:00 +7°C° 0 mm 8 mps 751 mmHg 54%
    09:00 +9°C° 0 mm 8 mps 751 mmHg 49%
    10:00 +11°C° 0 mm 8 mps 752 mmHg 45%
    11:00 +12°C° 0 mm 8 mps 752 mmHg 41%
    12:00 +13°C° 0 mm 8 mps 752 mmHg 39%
    13:00 +13°C° 0 mm 8 mps 752 mmHg 37%
    14:00 +15°C° 0 mm 7 mps 751 mmHg 35%
    15:00 +15°C° 0 mm 7 mps 751 mmHg 35%
    16:00 +14°C° 0 mm 7 mps 751 mmHg 36%
    17:00 +14°C° 0 mm 7 mps 751 mmHg 37%
    18:00 +11°C° 0 mm 6 mps 751 mmHg 39%
    19:00 +10°C° 0 mm 6 mps 751 mmHg 42%
    20:00 +9°C° 0 mm 5 mps 751 mmHg 44%
    21:00 +9°C° 0 mm 5 mps 751 mmHg 46%
    22:00 +8°C° 0 mm 5 mps 751 mmHg 47%
    23:00 +8°C° 0 mm 6 mps 751 mmHg 48%

    Tomorrow, 27 September, Thursday

    Time Temperature Precipitation Wind Pressure Humidity
    00:00 +7°C° 0 mm 5 mps 751 mmHg 49%
    01:00 +7°C° 0 mm 5 mps 751 mmHg 50%
    02:00 +6°C° 0 mm 5 mps 751 mmHg 51%
    03:00 +6°C° 0 mm 5 mps 751 mmHg 51%
    04:00 +5°C° 0 mm 4 mps 750 mmHg 52%
    05:00 +5°C° 0 mm 4 mps 750 mmHg 53%
    06:00 +6°C° 0 mm 4 mps 750 mmHg 50%
    07:00 +7°C° 0 mm 4 mps 750 mmHg 47%
    08:00 +8°C° 0 mm 5 mps 750 mmHg 43%
    09:00 +10°C° 0 mm 5 mps 750 mmHg 39%
    10:00 +12°C° 0 mm 5 mps 750 mmHg 35%
    11:00 +14°C° 0 mm 4 mps 750 mmHg 31%
    12:00 +15°C° 0 mm 4 mps 750 mmHg 30%
    13:00 +17°C° 0 mm 4 mps 749 mmHg 29%
    14:00 +17°C° 0 mm 3 mps 749 mmHg 27%
    15:00 +17°C° 0 mm 3 mps 749 mmHg 28%
    16:00 +17°C° 0 mm 3 mps 748 mmHg 28%
    17:00 +17°C° 0 mm 3 mps 748 mmHg 28%
    18:00 +15°C° 0 mm 2 mps 748 mmHg 32%
    19:00 +13°C° 0 mm 2 mps 748 mmHg 35%
    20:00 +12°C° 0 mm 2 mps 748 mmHg 39%
    21:00 +11°C° 0 mm 1 mps 748 mmHg 41%
    22:00 +11°C° 0 mm 1 mps 747 mmHg 43%
    23:00 +10°C° 0 mm 1 mps 747 mmHg 45%

    Day after tomorrow, 28 September, Friday

    Time Temperature Precipitation Wind Pressure Humidity
    00:00 +10°C° 0 mm 1 mps 747 mmHg 45%
    01:00 +10°C° 0 mm 1 mps 747 mmHg 46%
    02:00 +9°C° 0 mm 1 mps 746 mmHg 46%
    03:00 +9°C° 0 mm 1 mps 746 mmHg 45%
    04:00 +8°C° 0 mm 2 mps 746 mmHg 45%
    05:00 +8°C° 0 mm 2 mps 745 mmHg 44%
    06:00 +9°C° 0 mm 2 mps 745 mmHg 41%
    07:00 +10°C° 0 mm 2 mps 745 mmHg 38%
    08:00 +13°C° 0 mm 2 mps 745 mmHg 35%
    09:00 +15°C° 0 mm 2 mps 745 mmHg 34%
    10:00 +16°C° 0 mm 2 mps 745 mmHg 33%
    11:00 +18°C° 0 mm 2 mps 745 mmHg 32%
    12:00 +19°C° 0 mm 2 mps 744 mmHg 31%
    13:00 +20°C° 0 mm 2 mps 743 mmHg 30%
    14:00 +20°C° 0 mm 3 mps 743 mmHg 30%
    15:00 +20°C° 0 mm 3 mps 742 mmHg 33%
    16:00 +19°C° 0 mm 3 mps 742 mmHg 36%
    17:00 +19°C° 0 mm 3 mps 741 mmHg 39%
    18:00 +17°C° 0 mm 3 mps 741 mmHg 47%
    19:00 +15°C° 0 mm 2 mps 741 mmHg 55%
    20:00 +14°C° 0 mm 2 mps 741 mmHg 63%
    21:00 +13°C° 0 mm 2 mps 741 mmHg 65%
    22:00 +13°C° 0 mm 2 mps 740 mmHg 68%
    23:00 +13°C° 0 mm 1 mps 740 mmHg 70%

    29 September, Saturday

    Time Temperature Precipitation Wind Pressure Humidity
    00:00 +13°C° 0 mm 1 mps 740 mmHg 70%
    01:00 +13°C° 0 mm 1 mps 740 mmHg 69%
    02:00 +13°C° 0 mm 1 mps 739 mmHg 69%
    03:00 +13°C° 0 mm 1 mps 739 mmHg 68%
    04:00 +14°C° 0 mm 1 mps 739 mmHg 67%
    05:00 +14°C° 0 mm 1 mps 739 mmHg 66%
    06:00 +15°C° 0 mm 1 mps 739 mmHg 65%
    07:00 +15°C° 0 mm 1 mps 739 mmHg 63%
    08:00 +16°C° 0 mm 1 mps 739 mmHg 61%
    09:00 +17°C° 0 mm 2 mps 739 mmHg 61%
    10:00 +17°C° 0 mm 2 mps 739 mmHg 60%
    11:00 +18°C° 0 mm 2 mps 739 mmHg 60%
    12:00 +18°C° 0 mm 2 mps 739 mmHg 59%
    13:00 +19°C° 0 mm 2 mps 739 mmHg 57%
    14:00 +19°C° 0 mm 2 mps 739 mmHg 56%
    15:00 +19°C° 0 mm 3 mps 739 mmHg 57%
    16:00 +18°C° 0 mm 3 mps 739 mmHg 57%
    17:00 +18°C° 0 mm 3 mps 739 mmHg 58%
    18:00 +17°C° 0.1 mm 4 mps 739 mmHg 59%
    19:00 +15°C° 0.1 mm 5 mps 740 mmHg 60%
    20:00 +15°C° 0.1 mm 6 mps 740 mmHg 61%
    21:00 +14°C° 0.1 mm 6 mps 740 mmHg 67%
    22:00 +12°C° 0.1 mm 7 mps 741 mmHg 73%
    23:00 +11°C° 0.1 mm 8 mps 741 mmHg 79%

    30 September, Sunday

    Time Temperature Precipitation Wind Pressure Humidity
    00:00 +11°C° 0.1 mm 8 mps 741 mmHg 78%
    01:00 +11°C° 0.1 mm 8 mps 741 mmHg 78%
    02:00 +10°C° 0.1 mm 8 mps 741 mmHg 77%
    03:00 +10°C° 0 mm 8 mps 741 mmHg 77%
    04:00 +9°C° 0 mm 8 mps 741 mmHg 76%
    05:00 +9°C° 0 mm 8 mps 741 mmHg 76%
    06:00 +9°C° 0 mm 8 mps 742 mmHg 75%
    07:00 +9°C° 0 mm 8 mps 742 mmHg 75%
    08:00 +10°C° 0 mm 8 mps 742 mmHg 74%
    09:00 +11°C° 0 mm 8 mps 742 mmHg 70%
    10:00 +12°C° 0 mm 8 mps 743 mmHg 66%
    11:00 +15°C° 0 mm 8 mps 743 mmHg 61%
    12:00 +15°C° 0 mm 8 mps 743 mmHg 60%
    13:00 +16°C° 0 mm 8 mps 742 mmHg 58%
    14:00 +17°C° 0 mm 8 mps 742 mmHg 57%
    15:00 +17°C° 0.1 mm 8 mps 742 mmHg 58%
    16:00 +17°C° 0.1 mm 8 mps 742 mmHg 60%
    17:00 +16°C° 0.1 mm 8 mps 742 mmHg 61%
    18:00 +16°C° 0 mm 7 mps 742 mmHg 64%
    19:00 +15°C° 0 mm 7 mps 742 mmHg 67%
    20:00 +15°C° 0 mm 6 mps 742 mmHg 70%
    21:00 +14°C° 0 mm 6 mps 742 mmHg 70%
    22:00 +14°C° 0 mm 6 mps 742 mmHg 71%
    23:00 +13°C° 0 mm 6 mps 742 mmHg 72%

    1 October, Monday

    Time Temperature Precipitation Wind Pressure Humidity
    00:00 +13°C° 0 mm 6 mps 741 mmHg 71%
    01:00 +13°C° 0 mm 6 mps 741 mmHg 69%
    02:00 +11°C° 0 mm 6 mps 741 mmHg 68%
    03:00 +11°C° 0 mm 6 mps 741 mmHg 68%
    04:00 +11°C° 0 mm 6 mps 740 mmHg 69%
    05:00 +10°C° 0 mm 6 mps 740 mmHg 70%
    06:00 +11°C° 0 mm 6 mps 740 mmHg 69%
    07:00 +11°C° 0 mm 6 mps 740 mmHg 69%
    08:00 +12°C° 0 mm 7 mps 740 mmHg 69%
    09:00 +14°C° 0.1 mm 7 mps 739 mmHg 67%
    10:00 +15°C° 0.1 mm 7 mps 739 mmHg 66%
    11:00 +16°C° 0.1 mm 6 mps 739 mmHg 65%
    12:00 +16°C° 0.3 mm 6 mps 739 mmHg 67%
    13:00 +16°C° 0.3 mm 6 mps 738 mmHg 69%
    14:00 +16°C° 0.3 mm 6 mps 738 mmHg 70%
    15:00 +16°C° 0.8 mm 6 mps 737 mmHg 73%
    16:00 +16°C° 0.8 mm 6 mps 737 mmHg 75%
    17:00 +15°C° 0.8 mm 5 mps 737 mmHg 78%
    18:00 +15°C° 2.4 mm 5 mps 737 mmHg 80%
    19:00 +14°C° 2.4 mm 5 mps 737 mmHg 83%
    20:00 +14°C° 2.4 mm 5 mps 737 mmHg 86%
    21:00 +14°C° 1.6 mm 5 mps 737 mmHg 87%
    22:00 +13°C° 1.6 mm 6 mps 737 mmHg 87%
    23:00 +13°C° 1.6 mm 6 mps 737 mmHg 88%
    Show more